STARLINK-1419 (45694 NORAD) Tracking and Keplerian Element Data

This shows tracking and keplerian element data for the satellite.

Feedback or suggestion? Click here.




ElementValue
Catalog45694
NameSTARLINK-1419
Epoch Orbit657
Epoch Day192.16668981
Epoch Year2020
RAAN352.2724
Inclination52.9998
Eccentricity9.63E-05
Argument of Perigee71.5396
Mean Anonmoly107.4867
Mean Motion15.62736465
Decay Rate-0.00015465
L11 45694U 20035AP 20192.16668981 -.00015465 00000-0 -16349-3 0 9996
L22 45694 52.9998 352.2724 0000963 71.5396 107.4867 15.62736465 6572

Live tracking and technical data element details for STARLINK-1419 (NORAD 45694). STARLINK-1419 can be tracked NOW for your location showing map with azimuth and elevation plus other details from your city location.

Track the satellite on the map from your city or location and see movement details for azimuth, elevation, latitude, longitude, range, height, and movement on the map or in text.







IsCatalogInMostPopularTable: catalog: 45694, numindb: 5
Update: records affected: 1



GetName: 45694 STARLINK-1419

Hit Count: updated at: Fri, 10 Jul 2020 15:15:55 GMT